User: anonymous   Login
Location: Auckland
(36.8670°S, 174.7670°E)
Time: 11:31:30
(UTC+13:00)
Language:

SPOT 3 Rocket - Orbit

View from above orbital plane
View from above orbital plane
View from above satellite
View from above satellite

Ground track
Ground track

The orbit data is extracted from the following two-line orbital elements,

1 22830U 93061H   19290.21518097 -.00000017  00000-0  10693-4 0  9990
2 22830  98.8024 331.6649 0010133 321.8773  38.1692 14.31439433360136
Epoch (UTC): 17 October 2019 05:09:51
Eccentricity: 0.0010133
inclination: 98.8024°
perigee height: 779 km
apogee height: 794 km
right ascension of ascending node: 331.6649°
argument of perigee: 321.8773°
revolutions per day: 14.31439433
mean anomaly at epoch: 38.1692°
orbit number at epoch: 36013

The dashed part of the orbit path shows where the satellite is in the earth's shadow,  

DLR